ONEWEB-0146 (47292 NORAD) Tracking and Keplerian Element Data

This shows tracking and keplerian element data for the satellite.

Feedback or suggestion? Click here.




ElementValue
Catalog47292
NameONEWEB-0146
Epoch Orbit172
Epoch Day99.91667824
Epoch Year2021
RAAN7.3146
Inclination87.9618
Eccentricity0.000148
Argument of Perigee102.2195
Mean Anonmoly60.9614
Mean Motion13.28500551
Decay Rate-0.00039156
L11 47292U 20100AL 21099.91667824 -.00039156 00000-0 -86212-1 0 9997
L22 47292 87.9618 7.3146 0001480 102.2195 60.9614 13.28500551 1725

Live tracking and technical data element details for ONEWEB-0146 (NORAD 47292). ONEWEB-0146 can be tracked NOW for your location showing map with azimuth and elevation plus other details from your city location.

Track the satellite on the map from your city or location and see movement details for azimuth, elevation, latitude, longitude, range, height, and movement on the map or in text.







IsCatalogInMostPopularTable: catalog: 47292, numindb: 36
Update: records affected: 1



GetName: 47292 ONEWEB-0146

Hit Count: updated at: Sat, 10 Apr 2021 19:46:22 GMT